Regional Weather Roundup
Issued by NWS

Home | Current Version | Previous Version | Graphics & Text | Print | Product List | Glossary On
Versions: 1 2 3 4 5 6 7 8 9 10 11 12 13 14 15 16 17 18 19 20 21 22 23 24 25 26 27 28 29 30 31 32 33 34 35 36 37 38 39 40 41 42 43 44 45 46 47 48 49 50
000
ASUS45 KBOU 230607
RWRCO

WEATHER ROUNDUP FOR COLORADO
NATIONAL WEATHER SERVICE DENVER/BOULDER CO
1200 AM MDT TUE SEP 23 2014

NOTE: "FAIR" INDICATES FEW OR NO CLOUDS BELOW 12000 FEET WITH NO
SIGNIFICANT WEATHER AND/OR OBSTRUCTIONS TO VISIBILITY.

COZ001>005-013-030-031-230700-
...NORTHWEST COLORADO...

CITY           SKY/WX    TMP DP  RH WIND       PRES   REMARKS
CRAIG          CLOUDY    55  48  77 CALM      30.24S
HAYDEN         MOCLDY    54  45  71 CALM      30.25S
MEEKER         CLOUDY    56  49  77 NE5       30.27R
MOUNT WERNER   NOT AVBL
STEAMBOAT SPGS MOCLDY    52  47  85 CALM      30.27S
WALDEN         CLOUDY    46  45  93 E5        30.32R
$$

COZ006>008-011-230700-
...WEST CENTRAL VALLEYS...

CITY           SKY/WX    TMP DP  RH WIND       PRES   REMARKS
GRAND JUNCTION MOCLDY    63  51  65 E7        30.16R
MONTROSE       MOCLDY    58  52  80 SE8       30.25S
EAGLE          CLOUDY    55  52  88 E3        30.30F
RIFLE          CLOUDY    59  51  75 E6        30.22S
DELTA          CLOUDY    63  55  74 NE5       30.21R
NUCLA          PTCLDY    59  46  63 E7        30.28S
$$

COZ017>023-064>068-230700-
...SOUTHWEST COLORADO...

CITY           SKY/WX    TMP DP  RH WIND       PRES   REMARKS
DURANGO        CLEAR     53  44  71 CALM      30.30R
CORTEZ         CLEAR     53  48  83 E3        30.26R
PAGOSA SPRINGS CLEAR     49  48  97 CALM      30.38R
TELLURIDE      NOT AVBL
WOLF CREEK PAS CLEAR     39  30  70 SW23G33   30.59S
$$

COZ009-010-012-014-032>034-037-058>063-230700-
...CENTRAL COLORADO...

CITY           SKY/WX    TMP DP  RH WIND       PRES   REMARKS
ASPEN          MOCLDY    49  44  83 S5        30.34F
BUENA VISTA    CLEAR     53  42  65 NW9       30.32S
COPPER MTN     CLOUDY    45  34  65 W17       30.56S
BERTHOUD PASS  CLOUDY    34  32  93 NW25G40   30.55S WCI  21
COTTONWOOD PAS PTCLDY    54  36  50 N3        30.43R
GUNNISON       CLEAR     50  45  81 CALM      30.37S
KREMMLING      CLOUDY    54  45  71 CALM      30.32S
LEADVILLE      PTCLDY    48  39  71 NW6       30.44S
MONARCH PASS   PTCLDY    37  36  93 W33       30.64S
SALIDA         CLEAR     58  44  59 W3        30.37S
SUNLIGHT       CLOUDY    45  43  93 CALM      30.52S
WILKERSON PASS NOT AVBL
$$

COZ069>075-230700-
...SAN LUIS VALLEY/SANGRE DE CRISTO MOUNTAINS...

CITY           SKY/WX    TMP DP  RH WIND       PRES   REMARKS
ALAMOSA        CLEAR     49  42  77 W3        30.33R
LA VETA PASS   MOCLDY    46  43  87 S9G17     30.45S
SAGUACHE       CLEAR     52  45  76 N10       30.35S
$$

COZ035-036-038>040-230700-
...NORTHERN COLORADO FRONT RANGE...

CITY           SKY/WX    TMP DP  RH WIND       PRES   REMARKS
DENVER INTL AP PTCLDY    59  46  62 E8        30.14F
DMNS CITY PARK   N/A     59  51  75 E6        30.14R
AURORA         PTCLDY    56  50  81 E7        30.17R
FRONT RANGE AP CLEAR     55  50  82 CALM      30.16S
ERIE MUNI ARPT NOT AVBL
BOULDER MUN AP PTCLDY    61  45  55 CALM      30.13S
CENTENNIAL     PTCLDY    58  51  78 VRB5      30.16S
BROOMFIELD     CLEAR     61  46  59 NE7       30.15S
FORT COLLINS   PTCLDY    61  46  59 SE6       30.12S
LONGMONT       MOCLDY    60  46  58 CALM      30.13S
$$

COZ041-046-047-076>085-087-088-230700-
...PIKES PEAK/PALMER DIVIDE AND SOUTHERN FOOTHILLS...

CITY           SKY/WX    TMP DP  RH WIND       PRES   REMARKS
COLO. SPRINGS  CLEAR     58  49  72 W5        30.20R
A. F. ACADEMY  CLEAR     53  47  83 NE6       30.22S
ELLICOTT       NOT AVBL
FALCON         CLEAR     57  45  62 N3        30.24S
FORT CARSON    CLEAR     60  50  71 N9        30.17R
LIMON          CLOUDY    57  54  89 CALM      30.15S
MONUMENT HILL  CLEAR     50  45  81 S6        30.23S
TRINIDAD       CLEAR     63  55  75 SW10      30.18R
$$

COZ042>045-048>051-090-091-230700-
...NORTHEAST COLORADO...

CITY           SKY/WX    TMP DP  RH WIND       PRES   REMARKS
GREELEY ARPT   PTCLDY    57  45  62 E6        30.10F
AKRON          PTCLDY    58  56  93 W6        30.09R
BURLINGTON     CLOUDY    58  56  93 SE15      30.10F
WRAY           CLOUDY    60  56  89 CALM      30.06S
STERLING       MOCLDY    61  57  88 N3        30.06S
HOLYOKE        CLOUDY    59  55  88 CALM      30.08F
FORT MORGAN    MOCLDY    56  54  91 CALM      30.10S
$$

COZ086-089-092>099-230700-
...SOUTHEAST COLORADO...

CITY           SKY/WX    TMP DP  RH WIND       PRES   REMARKS
PUEBLO         MOCLDY    61  54  77 N6        30.10R
LA JUNTA       CLEAR     68  57  68 SW17      30.05S
LAMAR          CLEAR     67  59  75 N6        30.04R
SPRINGFIELD      N/A     63  59  87 S14G23    30.12S
$$


USA.gov is the U.S. government's official web portal to all federal, state and local government web resources and services.